FW6987 Weather Reports


Display with metric or nautical units.
time (UTC)temp
F
wind
direction
speed
MPH
gust
MPH
rain 1hr
in
rain 24hr
in
rain mn
in
humidity
%
barometer
mb
20260509231552 53 0 0.0 0.0 0.01 0.45 0.45 95 1000.0
20260509230051 53 0 0.0 1.0 0.01 0.44 0.44 95 1000.1
20260509224600 53 0 0.0 2.0 0.01 0.44 0.44 95 1000.1
20260509223100 53 0 0.0 1.0 0.02 0.44 0.44 95 1000.3
20260509221555 53 0 0.0 0.0 0.02 0.44 0.44 95 1000.2
20260509214554 53 0 0.0 1.0 0.03 0.43 0.43 95 1000.3
20260509213056 53 0 0.0 1.0 0.03 0.42 0.42 95 1000.4
20260509211602 53 0 0.0 0.0 0.03 0.42 0.42 95 1000.3
20260509210053 53 0 0.0 1.0 0.03 0.41 0.41 95 1000.5
20260509204555 53 216 0.0 2.0 0.04 0.40 0.40 95 1000.6
20260509203103 52 0 0.0 1.0 0.04 0.39 0.39 95 1000.8
20260509201602 52 0 0.0 1.0 0.05 0.39 0.39 94 1001.2
20260509200108 52 0 0.0 2.0 0.04 0.37 0.37 94 1001.2
20260509194553 52 0 0.0 3.0 0.05 0.36 0.36 94 1001.6
20260509193113 52 0 0.0 1.0 0.05 0.35 0.35 94 1001.7
20260509191559 52 139 1.0 2.0 0.06 0.34 0.34 94 1001.8
20260509190053 52 139 0.0 2.0 0.06 0.33 0.33 94 1001.9
20260509184604 52 0 0.0 0.0 0.06 0.31 0.31 94 1002.3
20260509183056 52 0 0.0 0.0 0.06 0.30 0.30 94 1002.2
20260509181555 52 0 0.0 2.0 0.06 0.28 0.28 94 1002.1
20260509180054 51 0 0.0 1.0 0.05 0.27 0.27 94 1002.1
20260509174558 52 0 0.0 2.0 0.05 0.25 0.25 94 1002.1
20260509173105 52 175 0.0 1.0 0.05 0.24 0.24 94 1002.0
20260509171612 52 0 0.0 1.0 0.04 0.22 0.22 94 1001.8
20260509170057 52 0 0.0 2.0 0.05 0.22 0.22 94 1001.6
20260509164554 51 0 0.0 0.0 0.05 0.20 0.20 94 1002.1
20260509163124 51 0 0.0 1.0 0.05 0.19 0.19 94 1002.3
20260509161556 50 0 0.0 0.0 0.05 0.18 0.18 94 1002.7
20260509160058 50 0 0.0 0.0 0.05 0.17 0.17 94 1003.0
20260509154610 50 0 0.0 0.0 0.03 0.15 0.15 94 1003.2
20260509153057 50 0 0.0 0.0 0.02 0.14 0.14 94 1003.1
20260509151603 49 0 0.0 0.0 0.02 0.13 0.13 94 1002.8
20260509150112 49 0 0.0 0.0 0.01 0.12 0.12 94 1002.9
20260509144708 49 0 0.0 0.0 0.01 0.12 0.12 94 1003.0
20260509143057 49 0 0.0 0.0 0.02 0.12 0.12 94 1003.0
20260509141550 48 0 0.0 0.0 0.01 0.11 0.11 94 1003.0
20260509140059 48 0 0.0 0.0 0.02 0.11 0.11 94 1003.1
20260509134557 48 0 0.0 0.0 0.01 0.10 0.10 93 1003.2
20260509133054 48 0 0.0 0.0 0.01 0.10 0.10 93 1003.3
20260509131553 47 0 0.0 0.0 0.01 0.10 0.10 93 1003.5
20260509130105 47 0 0.0 0.0 0.00 0.09 0.09 93 1003.2
20260509124611 46 0 0.0 0.0 0.01 0.09 0.09 92 1002.9
20260509123059 46 0 0.0 0.0 0.01 0.09 0.09 92 1003.0
20260509121552 45 67 0.0 3.0 0.01 0.09 0.09 92 1003.2
20260509120104 45 0 0.0 0.0 0.02 0.09 0.09 91 1003.5
20260509114554 44 0 0.0 0.0 0.01 0.08 0.08 91 1003.6
20260509113055 44 0 0.0 0.0 0.01 0.08 0.08 90 1003.6
20260509111552 44 0 0.0 0.0 0.01 0.08 0.08 90 1003.6
20260509110053 43 0 0.0 0.0 0.00 0.07 0.07 90 1003.6
20260509104548 43 0 0.0 1.0 0.00 0.07 0.07 89 1003.4
20260509103049 43 59 0.0 6.0 0.00 0.07 0.07 89 1003.3
20260509101554 43 79 3.0 9.0 0.01 0.07 0.07 89 1003.1
20260509100056 43 45 1.0 3.0 0.01 0.07 0.07 90 1003.3
20260509094553 43 0 0.0 0.0 0.02 0.07 0.07 89 1003.4
20260509093052 44 0 0.0 0.0 0.02 0.07 0.07 88 1003.5
20260509091552 44 0 0.0 0.0 0.01 0.06 0.06 88 1003.5
20260509090055 44 0 0.0 3.0 0.02 0.06 0.06 87 1003.5
20260509084556 44 290 3.0 6.0 0.01 0.05 0.05 85 1003.7
20260509083055 44 0 1.0 9.0 0.02 0.05 0.05 85 1003.9
20260509081552 44 275 6.0 12.0 0.03 0.05 0.05 84 1003.4
20260509080058 44 308 6.0 10.0 0.03 0.04 0.04 84 1003.1
20260509074551 45 317 3.0 6.0 0.04 0.04 0.04 82 1003.3
20260509073056 46 25 1.0 4.0 0.03 0.03 0.03 81 1003.3
20260509071556 47 0 0.0 0.0 0.02 0.02 0.02 78 1003.2
20260509070050 48 0 0.0 1.0 0.01 0.01 0.01 73 1003.4
20260509064548 48 0 0.0 3.0 0.00 0.00 0.00 66 1003.3
20260509063048 48 351 1.0 4.0 0.00 0.00 0.00 64 1003.1
20260509061552 48 286 0.0 0.0 0.00 0.00 0.00 70 1003.4
20260509060105 48 0 0.0 0.0 0.00 0.00 0.00 69 1003.2
20260509054603 49 0 0.0 0.0 0.00 0.00 0.00 68 1003.5
20260509053049 49 0 0.0 0.0 0.00 0.00 0.00 64 1003.5
20260509051551 49 0 0.0 0.0 0.00 0.00 0.00 64 1003.6
20260509050059 49 0 0.0 0.0 0.00 0.00 0.00 67 1003.6
20260509044552 49 0 0.0 1.0 0.00 0.00 0.00 66 1003.7
20260509043049 49 0 0.0 1.0 0.00 0.00 0.00 68 1003.8
20260509041549 50 0 0.0 1.0 0.00 0.00 0.00 66 1003.7
20260509040055 50 0 0.0 0.0 0.00 0.00 0.00 65 1003.7
20260509034600 50 0 0.0 1.0 0.00 0.00 0.00 64 1003.6
20260509033051 50 0 0.0 0.0 0.00 0.00 0.00 63 1003.6
20260509031600 50 0 0.0 0.0 0.00 0.00 0.00 66 1003.3
20260509030053 50 0 0.0 2.0 0.00 0.00 0.00 65 1003.3
20260509024554 50 0 0.0 2.0 0.00 0.00 0.00 63 1003.4
20260509023058 50 0 0.0 0.0 0.00 0.00 0.00 62 1003.3
20260509021549 50 0 0.0 0.0 0.00 0.00 0.00 59 1003.4
20260509020056 49 0 0.0 0.0 0.00 0.00 0.00 60 1003.5
20260509014550 50 0 0.0 0.0 0.00 0.00 0.00 58 1003.3
20260509013113 50 0 0.0 0.0 0.00 0.00 0.00 56 1003.1
20260509011555 51 0 0.0 0.0 0.00 0.00 0.00 54 1002.7
20260509010053 51 0 0.0 3.0 0.00 0.00 0.00 54 1002.8
20260509004553 51 0 0.0 2.0 0.00 0.00 0.00 55 1002.4
20260509003103 51 285 0.0 3.0 0.00 0.00 0.00 53 1002.1
20260509001557 52 279 0.0 2.0 0.00 0.00 0.00 53 1001.9
20260509000057 53 257 0.0 2.0 0.00 0.00 0.00 50 1002.0
20260508234556 53 0 0.0 2.0 0.00 0.00 0.00 53 1002.0
20260508233056 54 0 0.0 4.0 0.00 0.00 0.00 52 1001.9